Starlink 34037

operational
NORAD ID: 63847 Int'l Des: 2025-093 Owner: SPXS Country: US Constellation: starlink
LEOCIRCULAR

About Starlink 34037

Description loading...

Live Position

Loading 3D Globe...

Upcoming Passes

Altitude History

Altitude vs Time

uPlot chart will show altitude changes over time

Two-Line Element Set

1 63847U 25093M 26062.15222472 .00041122 00000-0 14948-2 0 9996
2 63847 42.9982 114.7105 0001041 244.1394 115.9350 15.27595765 46978
Epoch: Mar 3, 2026 • Age: 30 hours

Current Status

Altitude 491.7 km
Velocity 7.62 km/s
Sub-Earth Point -33.57°S, 169.99°E
Launch Date May 7, 2025
Age 0.8 years
Type internet

Technical Details

Classification Payload
Mass 575.00 kg
Dry Mass 530.00 kg
Total Mass 575.00 kg
Length 0.30 m
Diameter 4.10 m
Span 29.00 m
Shape Box + pan
Manufacturer SPXS
Bus Type Starlink V2MO
Phase Status In Orbit
Owner/State SPXS/US

Large Constellations

Loading constellations...